Simultaneous Nadir Overpasses (SNOs) Predictions

Prediction of SNOs between NOAA-20 and NOAA-19 Satellite Orbit:

Table of predicted SNOs for the next 14.0 days since TLE Epoch: 12/13/2019
Index Date (NOAA-20) Time (NOAA-20) Lat,Lon (NOAA-20) SZA (NOAA-20 ) Date (NOAA-19) Time (NOAA-19) Lat,Lon (NOAA-19) SZA (NOAA-19 ) Distance(km) Time Diff (sec)
1 12/26/2019 15:02:57 79.67, -81.53 104.83 12/26/2019 15:01:54 79.68, -81.66 104.88 3.15 63
2 12/26/2019 15:53:42 -79.68, 85.71 75.17 12/26/2019 15:52:50 -79.68, 85.54 75.12 3.34 52
3 12/26/2019 16:44:28 79.70,-107.22 104.89 12/26/2019 16:43:55 79.68,-107.25 104.88 3.05 33
4 12/26/2019 17:35:12 -79.68, 60.30 75.16 12/26/2019 17:34:50 -79.70, 60.24 75.13 2.22 22
5 12/26/2019 18:25:58 79.71,-132.63 104.89 12/26/2019 18:25:55 79.69,-132.54 104.87 2.11 3
6 12/26/2019 19:16:43 -79.71, 34.61 75.10 12/26/2019 19:16:51 -79.69, 34.66 75.13 2.98 8
7 12/26/2019 20:07:28 79.71,-158.03 104.89 12/26/2019 20:07:56 79.69,-158.13 104.87 3.20 28
8 12/26/2019 20:58:13 -79.72, 9.21 75.10 12/26/2019 20:58:51 -79.71, 9.36 75.14 3.26 38
9 12/26/2019 21:48:58 79.71, 176.56 104.90 12/26/2019 21:49:56 79.71, 176.58 104.87 0.92 58




NCC Satellite Simultaneous Nadir Overpasses (SNOs) Prediction Service
